Total_Precipitation_Accumulation
1.23 1.23 1.14 1.08 1.01 0.94 0.85 0.85 0.78 0.71 0.68 0.64 0.59 0.57 0.57 0.58 0.57 0.55 0.56 0.54 0.59 0.70 0.78 0.83 0.88 0.93 1.00 1.04 1.07 1.12 1.19 1.23 1.30 1.30 1.18 1.12 1.08 1.01 0.96 0.82 0.75 0.74 0.77
0.85 0.81 0.77 0.72 0.67 0.66 0.63 0.62 0.63 0.60 0.56 0.54 0.51 0.51 0.51 0.54 0.55 0.54 0.53 0.54 0.55 0.61 0.67 0.71 0.72 0.72 0.79 0.86 0.91 0.93 1.00 1.06 1.15 1.24 1.18 1.06 1.00 0.93 0.85 0.79 0.69 0.62 0.61
0.69 0.69 0.63 0.61 0.60 0.59 0.59 0.57 0.57 0.56 0.52 0.49 0.48 0.48 0.49 0.50 0.49 0.51 0.51 0.51 0.49 0.53 0.54 0.55 0.58 0.60 0.62 0.64 0.67 0.72 0.77 0.82 0.90 0.96 0.99 0.92 0.87 0.78 0.75 0.70 0.62 0.63 0.53
0.67 0.64 0.55 0.51 0.51 0.52 0.51 0.51 0.50 0.49 0.50 0.51 0.50 0.47 0.44 0.41 0.37 0.35 0.35 0.36 0.34 0.36 0.36 0.38 0.45 0.52 0.52 0.52 0.51 0.51 0.55 0.65 0.73 0.80 0.82 0.80 0.77 0.70 0.70 0.67 0.60 0.55 0.49
0.76 0.76 0.67 0.56 0.52 0.50 0.50 0.51 0.50 0.46 0.43 0.41 0.36 0.33 0.27 0.22 0.20 0.18 0.21 0.23 0.24 0.25 0.25 0.25 0.28 0.37 0.45 0.45 0.43 0.46 0.52 0.58 0.62 0.66 0.65 0.61 0.60 0.65 0.67 0.60 0.54 0.48 0.42
0.87 0.92 0.90 0.82 0.72 0.66 0.58 0.53 0.48 0.44 0.36 0.27 0.22 0.20 0.18 0.15 0.14 0.14 0.15 0.21 0.23 0.23 0.24 0.24 0.25 0.28 0.32 0.34 0.40 0.49 0.58 0.58 0.60 0.62 0.58 0.57 0.55 0.56 0.57 0.56 0.56 0.55 0.54
0.91 0.93 0.90 0.83 0.74 0.64 0.53 0.45 0.41 0.36 0.32 0.28 0.22 0.17 0.15 0.13 0.12 0.12 0.14 0.20 0.24 0.25 0.26 0.26 0.24 0.24 0.28 0.29 0.34 0.41 0.46 0.49 0.55 0.64 0.67 0.63 0.62 0.62 0.63 0.61 0.63 0.65 0.61
0.94 0.90 0.83 0.72 0.63 0.53 0.46 0.42 0.38 0.35 0.34 0.32 0.27 0.23 0.19 0.13 0.10 0.10 0.11 0.18 0.23 0.24 0.25 0.27 0.27 0.29 0.29 0.31 0.31 0.33 0.39 0.46 0.48 0.52 0.64 0.63 0.59 0.60 0.64 0.66 0.68 0.69 0.67
0.89 0.79 0.65 0.55 0.50 0.47 0.43 0.41 0.38 0.36 0.33 0.29 0.26 0.24 0.24 0.18 0.10 0.09 0.11 0.20 0.26 0.24 0.22 0.22 0.25 0.28 0.30 0.30 0.33 0.40 0.45 0.49 0.43 0.47 0.57 0.64 0.66 0.65 0.61 0.63 0.77 0.88 0.82
0.66 0.54 0.47 0.43 0.42 0.41 0.40 0.38 0.35 0.34 0.33 0.26 0.22 0.21 0.21 0.19 0.11 0.11 0.14 0.20 0.27 0.24 0.23 0.23 0.22 0.23 0.24 0.24 0.32 0.42 0.51 0.52 0.46 0.52 0.66 0.74 0.72 0.77 0.73 0.73 0.88 0.92 0.85
0.48 0.43 0.39 0.36 0.32 0.33 0.34 0.34 0.34 0.33 0.34 0.31 0.28 0.24 0.20 0.14 0.09 0.09 0.11 0.16 0.22 0.24 0.26 0.30 0.28 0.21 0.19 0.22 0.29 0.37 0.44 0.43 0.51 0.66 0.73 0.75 0.76 0.79 0.75 0.69 0.78 0.84 0.88
0.45 0.45 0.41 0.35 0.28 0.30 0.38 0.38 0.35 0.39 0.42 0.40 0.37 0.33 0.24 0.17 0.09 0.07 0.09 0.11 0.14 0.23 0.32 0.31 0.29 0.21 0.20 0.24 0.29 0.36 0.39 0.45 0.60 0.73 0.79 0.78 0.72 0.70 0.68 0.63 0.66 0.69 0.76
0.53 0.53 0.43 0.34 0.35 0.35 0.37 0.37 0.35 0.36 0.34 0.32 0.31 0.31 0.26 0.20 0.14 0.07 0.08 0.10 0.12 0.17 0.24 0.22 0.21 0.23 0.26 0.37 0.38 0.37 0.45 0.61 0.70 0.73 0.77 0.77 0.68 0.60 0.56 0.53 0.55 0.63 0.67
0.64 0.55 0.41 0.36 0.35 0.34 0.32 0.28 0.26 0.28 0.27 0.25 0.23 0.21 0.23 0.23 0.16 0.12 0.12 0.13 0.15 0.19 0.22 0.24 0.30 0.35 0.40 0.48 0.53 0.60 0.64 0.66 0.62 0.67 0.69 0.63 0.53 0.49 0.50 0.49 0.54 0.59 0.65
0.64 0.51 0.41 0.34 0.32 0.31 0.26 0.18 0.14 0.13 0.10 0.14 0.16 0.14 0.17 0.17 0.13 0.14 0.15 0.13 0.14 0.16 0.19 0.31 0.48 0.52 0.57 0.60 0.64 0.68 0.71 0.65 0.60 0.59 0.58 0.56 0.50 0.47 0.45 0.40 0.43 0.46 0.52
0.57 0.43 0.34 0.30 0.26 0.22 0.20 0.19 0.10 0.06 0.04 0.04 0.05 0.05 0.06 0.09 0.09 0.11 0.13 0.14 0.15 0.19 0.25 0.43 0.51 0.54 0.56 0.55 0.55 0.59 0.64 0.62 0.54 0.50 0.50 0.49 0.46 0.43 0.43 0.39 0.37 0.42 0.48
0.43 0.32 0.24 0.23 0.23 0.21 0.19 0.24 0.24 0.12 0.04 0.03 0.03 0.04 0.05 0.06 0.07 0.08 0.11 0.15 0.20 0.29 0.39 0.49 0.48 0.50 0.53 0.49 0.48 0.52 0.55 0.53 0.45 0.41 0.40 0.37 0.34 0.32 0.35 0.36 0.34 0.34 0.34
0.21 0.13 0.13 0.18 0.17 0.15 0.14 0.15 0.17 0.21 0.21 0.14 0.06 0.04 0.05 0.07 0.08 0.11 0.15 0.21 0.31 0.38 0.44 0.44 0.43 0.43 0.46 0.46 0.43 0.42 0.40 0.36 0.31 0.31 0.32 0.29 0.27 0.28 0.30 0.31 0.27 0.24 0.26
0.12 0.11 0.11 0.10 0.09 0.09 0.09 0.08 0.07 0.11 0.19 0.22 0.17 0.09 0.07 0.12 0.14 0.17 0.23 0.28 0.35 0.35 0.33 0.35 0.36 0.35 0.36 0.40 0.38 0.32 0.28 0.25 0.22 0.21 0.22 0.23 0.23 0.23 0.24 0.22 0.18 0.13 0.16
0.08 0.05 0.07 0.08 0.07 0.06 0.06 0.05 0.05 0.07 0.12 0.16 0.16 0.11 0.10 0.19 0.28 0.28 0.26 0.25 0.24 0.24 0.25 0.27 0.26 0.25 0.27 0.27 0.23 0.22 0.20 0.19 0.17 0.15 0.16 0.16 0.16 0.17 0.16 0.14 0.12 0.11 0.12
0.04 0.02 0.02 0.03 0.05 0.04 0.04 0.05 0.04 0.05 0.08 0.11 0.09 0.06 0.11 0.20 0.28 0.27 0.25 0.21 0.19 0.20 0.23 0.22 0.19 0.18 0.17 0.16 0.16 0.16 0.14 0.12 0.12 0.14 0.14 0.12 0.11 0.11 0.08 0.06 0.05 0.05 0.05
0.03 0.03 0.02 0.03 0.03 0.03 0.03 0.04 0.04 0.05 0.06 0.07 0.07 0.06 0.11 0.17 0.24 0.26 0.27 0.22 0.17 0.17 0.17 0.16 0.15 0.14 0.12 0.11 0.11 0.10 0.10 0.09 0.11 0.14 0.12 0.09 0.07 0.06 0.05 0.04 0.03 0.03 0.03
0.02 0.01 0.01 0.01 0.01 0.02 0.02 0.02 0.02 0.03 0.03 0.04 0.05 0.07 0.09 0.16 0.22 0.25 0.23 0.18 0.13 0.12 0.12 0.12 0.11 0.09 0.07 0.06 0.05 0.05 0.04 0.05 0.07 0.10 0.11 0.07 0.05 0.04 0.03 0.04 0.03 0.02 0.02
0.01 0.01 0.01 0.01 0.01 0.01 0.01 0.01 0.01 0.02 0.02 0.02 0.03 0.04 0.06 0.11 0.16 0.17 0.18 0.15 0.11 0.09 0.08 0.07 0.07 0.05 0.04 0.03 0.02 0.01 0.01 0.02 0.02 0.04 0.05 0.04 0.03 0.02 0.03 0.03 0.03 0.03 0.03
0.00 0.01 0.01 0.01 0.01 0.01 0.01 0.01 0.01 0.01 0.02 0.02 0.03 0.04 0.04 0.05 0.06 0.07 0.09 0.11 0.10 0.08 0.06 0.04 0.03 0.02 0.01 0.01 0.01 0.00 0.00 0.01 0.01 0.01 0.02 0.02 0.01 0.01 0.02 0.02 0.02 0.03 0.03
0.00 0.01 0.01 0.01 0.00 0.01 0.01 0.02 0.02 0.02 0.02 0.02 0.03 0.03 0.03 0.03 0.03 0.04 0.05 0.06 0.07 0.07 0.06 0.04 0.02 0.01 0.00 0.00 0.00 0.01 0.01 0.01 0.01 0.01 0.01 0.02 0.01 0.01 0.01 0.02 0.01 0.02 0.03